Weather History for KIYA - October, 2012

Change the Weather History Date:

Wednesday, October 17, 2012

  Actual Average (KARA) Record (KARA)
Temperature  
Mean Temperature 74 °F 70 °F  
Max Temperature 85 °F 81 °F 91 °F (2006)
Min Temperature 64 °F 58 °F 42 °F (1977)
Degree Days  
Heating Degree Days 0 1  
Month to date heating degree days 6  
Since 1 July heating degree days 7  
Cooling Degree Days 10 6  
Month to date cooling degree days 128  
Year to date cooling degree days 2684  
Growing Degree Days 24 (Base 50)    
Moisture  
Dew Point 72 °F    
Average Humidity 87    
Maximum Humidity 100    
Minimum Humidity 66    
Precipitation  
Precipitation 0.00 in 0.18 in 3.80 in (1984)
Month to date precipitation 3.28  
Year to date precipitation 48.76  
Sea Level Pressure  
Sea Level Pressure 29.78 in    
Wind  
Wind Speed 5 mph ()    
Max Wind Speed 17 mph    
Max Gust Speed 24 mph    
Visibility 8.2 miles    
Events Fog , Rain    
T = Trace of Precipitation, MM = Missing Value Source: Averaged Metar Reports

Daily Weather History Graph

Daily Weather History Graph

Search for Another Location

Airport or City:

Trip Planner

Search our weather history database for the weather conditions in past years. The results will help you decide how hot, cold, wet, or windy it might be!

Date:

Astronomy

Oct. 17, 2012 Rise Set
Actual Time 7:11 AM CDT 6:34 PM CDT
Civil Twilight 6:47 AM CDT 6:58 PM CDT
Nautical Twilight 6:19 AM CDT 7:26 PM CDT
Astronomical Twilight 5:52 AM CDT 7:54 PM CDT
Moon 9:33 AM CDT (10/17) 8:24 PM CDT (10/17)
Length of Visible Light 12h 11m
Length of Day
11h 23m
Waxing Crescent, 7% of the Moon is Illuminated
Oct 17
Waxing Crescent
Oct 21
First Quarter
Oct 29
Full
Nov 6
Last Quarter
Nov 13
New

Hourly Weather History & Observations

Time (CDT) Temp. Heat Index Dew Point Humidity Pressure Visibility Wind Dir Wind Speed Gust Speed Precip Events Conditions
12:15 AM 73.0 °F - 70.3 °F 91% 29.82 in 10.0 mi SSE 3.5 mph - N/A   Drizzle
12:35 AM 73.2 °F - 70.5 °F 91% 29.83 in 10.0 mi Calm Calm - N/A   Drizzle
12:55 AM 72.1 °F - 71.1 °F 96% 29.82 in 10.0 mi Calm Calm - N/A   Light Drizzle
1:15 AM 72.9 °F - 71.6 °F 96% 29.82 in 10.0 mi SE 6.9 mph - N/A   Overcast
1:35 AM 73.0 °F - 71.8 °F 96% 29.82 in 7.0 mi South 9.2 mph - N/A Rain Rain
1:55 AM 72.7 °F - 71.2 °F 95% 29.82 in 10.0 mi SSW 9.2 mph - N/A   Overcast
2:15 AM 72.1 °F - 70.9 °F 96% 29.82 in 10.0 mi SW 9.2 mph - N/A   Mostly Cloudy
2:35 AM 70.7 °F - 69.8 °F 97% 29.81 in 10.0 mi West 3.5 mph - N/A   Scattered Clouds
2:55 AM 69.1 °F - 69.1 °F 100% 29.81 in 10.0 mi Calm Calm - N/A   Clear
3:15 AM 68.7 °F - 68.7 °F 100% 29.81 in 5.0 mi Calm Calm - N/A   Clear
3:35 AM 68.4 °F - 68.4 °F 100% 29.80 in 7.0 mi NNE 3.5 mph - N/A   Clear
3:55 AM 67.8 °F - 67.8 °F 100% 29.80 in 7.0 mi Calm Calm - N/A   Clear
4:15 AM 66.2 °F - 66.2 °F 100% 29.80 in 0.8 mi Calm Calm - N/A   Mist
4:35 AM 64.6 °F - 64.6 °F 100% 29.80 in 0.2 mi Calm Calm - N/A Fog Fog
4:55 AM 64.6 °F - 64.6 °F 100% 29.80 in 0.2 mi Calm Calm - N/A Fog Fog
5:15 AM 64.4 °F - 64.4 °F 100% 29.81 in 0.2 mi Calm Calm - N/A Fog Fog
5:35 AM 66.2 °F - 66.2 °F 100% 29.81 in 0.5 mi East 3.5 mph - N/A Fog Fog
5:55 AM 64.8 °F - 64.8 °F 100% 29.81 in 0.5 mi Calm Calm - N/A Fog Fog
6:15 AM 64.4 °F - 64.4 °F 100% 29.82 in 0.8 mi Calm Calm - N/A   Overcast
6:55 AM 65.5 °F - 65.5 °F 100% 29.82 in 1.0 mi Calm Calm - N/A   Overcast
7:15 AM 64.8 °F - 64.8 °F 100% 29.83 in 0.8 mi Calm Calm - N/A   Overcast
7:35 AM 65.3 °F - 65.3 °F 100% 29.83 in 0.5 mi Calm Calm - N/A Fog Fog
7:55 AM 66.0 °F - 66.0 °F 100% 29.83 in 3.0 mi Calm Calm - N/A   Mostly Cloudy
8:15 AM 67.5 °F - 67.5 °F 100% 29.83 in 5.0 mi East 3.5 mph - N/A   Mostly Cloudy
8:35 AM 68.7 °F - 68.7 °F 100% 29.83 in 10.0 mi Calm Calm - N/A   Mostly Cloudy
8:55 AM 70.5 °F - 70.5 °F 100% 29.84 in 10.0 mi ESE 3.5 mph - N/A   Mostly Cloudy
9:15 AM 71.6 °F - 71.6 °F 100% 29.84 in 10.0 mi Calm Calm - N/A   Mostly Cloudy
9:35 AM 74.5 °F - 72.7 °F 94% 29.84 in 10.0 mi SE 3.5 mph - N/A   Mostly Cloudy
9:55 AM 78.1 °F - 72.9 °F 84% 29.84 in 10.0 mi SE 6.9 mph - N/A   Scattered Clouds
10:15 AM 80.4 °F 84.2 °F 71.4 °F 74% 29.83 in 10.0 mi SSE 8.1 mph - N/A   Scattered Clouds
10:35 AM 81.3 °F 85.0 °F 70.2 °F 69% 29.83 in 10.0 mi SSE 10.4 mph - N/A   Mostly Cloudy
10:55 AM 80.4 °F 83.6 °F 70.0 °F 70% 29.83 in 10.0 mi SSE 15.0 mph 20.7 mph N/A   Mostly Cloudy
11:15 AM 82.6 °F 87.1 °F 70.9 °F 68% 29.83 in 10.0 mi SSE 15.0 mph 18.4 mph N/A   Scattered Clouds
11:35 AM 82.8 °F 87.4 °F 71.1 °F 68% 29.82 in 10.0 mi SSE 13.8 mph 17.3 mph N/A   Mostly Cloudy
11:55 AM 83.3 °F 88.2 °F 71.2 °F 67% 29.81 in 10.0 mi SSE 13.8 mph 21.9 mph N/A   Mostly Cloudy
12:15 PM 84.0 °F 89.3 °F 71.6 °F 66% 29.80 in 10.0 mi South 15.0 mph 20.7 mph N/A   Mostly Cloudy
12:35 PM 83.8 °F 89.8 °F 72.5 °F 69% 29.80 in 10.0 mi SSE 12.7 mph 17.3 mph N/A   Mostly Cloudy
12:55 PM 83.7 °F 89.4 °F 72.5 °F 69% 29.79 in 10.0 mi SSE 16.1 mph 20.7 mph N/A   Mostly Cloudy
1:15 PM 83.5 °F 89.1 °F 72.3 °F 69% 29.77 in 10.0 mi SSE 13.8 mph 20.7 mph N/A   Overcast
1:35 PM 84.6 °F 90.7 °F 72.5 °F 67% 29.76 in 10.0 mi South 12.7 mph 20.7 mph N/A   Mostly Cloudy
1:55 PM 84.6 °F 91.0 °F 73.0 °F 68% 29.75 in 10.0 mi SSE 17.3 mph 20.7 mph N/A   Mostly Cloudy
2:15 PM 84.2 °F 90.9 °F 73.6 °F 70% 29.74 in 10.0 mi South 15.0 mph 24.2 mph N/A   Mostly Cloudy
2:35 PM 84.4 °F 91.0 °F 73.2 °F 69% 29.74 in 10.0 mi South 16.1 mph 19.6 mph N/A   Scattered Clouds
2:55 PM 84.6 °F 91.4 °F 73.6 °F 69% 29.73 in 10.0 mi South 13.8 mph 20.7 mph N/A   Scattered Clouds
3:15 PM 84.0 °F 90.8 °F 73.8 °F 71% 29.72 in 10.0 mi South 13.8 mph 19.6 mph N/A   Mostly Cloudy
3:35 PM 83.5 °F 90.3 °F 74.1 °F 73% 29.72 in 10.0 mi South 12.7 mph - N/A   Overcast
3:55 PM 84.4 °F 91.0 °F 73.2 °F 69% 29.72 in 10.0 mi South 9.2 mph - N/A   Overcast
4:15 PM 85.1 °F 91.5 °F 72.7 °F 66% 29.72 in 10.0 mi SSW 9.2 mph 18.4 mph N/A   Overcast
4:35 PM 84.0 °F 89.9 °F 72.5 °F 68% 29.72 in 10.0 mi South 13.8 mph 19.6 mph N/A   Mostly Cloudy
4:55 PM 83.1 °F 88.9 °F 72.7 °F 71% 29.72 in 10.0 mi South 13.8 mph 18.4 mph N/A   Overcast
5:15 PM 84.2 °F 90.6 °F 73.2 °F 69% 29.72 in 10.0 mi South 12.7 mph 19.6 mph N/A   Mostly Cloudy
5:35 PM 83.7 °F 90.4 °F 73.6 °F 72% 29.71 in 10.0 mi SSW 16.1 mph 20.7 mph N/A   Mostly Cloudy
5:55 PM 82.4 °F 88.4 °F 73.9 °F 75% 29.71 in 10.0 mi South 11.5 mph - N/A   Scattered Clouds
6:15 PM 81.1 °F 86.4 °F 73.6 °F 78% 29.72 in 10.0 mi South 8.1 mph - N/A   Scattered Clouds
6:35 PM 79.9 °F - 73.4 °F 80% 29.72 in 10.0 mi South 8.1 mph - N/A   Clear
6:55 PM 78.3 °F - 73.6 °F 85% 29.72 in 10.0 mi South 6.9 mph - N/A   Clear
7:15 PM 77.9 °F - 74.5 °F 89% 29.72 in 10.0 mi South 6.9 mph - N/A   Clear
7:35 PM 77.4 °F - 74.7 °F 91% 29.72 in 10.0 mi South 5.8 mph - N/A   Clear
7:55 PM 76.6 °F - 75.2 °F 95% 29.73 in 10.0 mi South 4.6 mph - N/A   Clear
8:15 PM 76.3 °F - 75.6 °F 98% 29.73 in 7.0 mi SSE 5.8 mph - N/A   Clear
8:35 PM 77.0 °F - 76.6 °F 99% 29.74 in 7.0 mi South 5.8 mph - N/A   Clear
8:55 PM 77.0 °F - 76.8 °F 99% 29.74 in 10.0 mi South 5.8 mph - N/A   Clear
9:15 PM 77.0 °F - 77.0 °F 100% 29.74 in 10.0 mi South 6.9 mph - N/A   Clear
9:35 PM 77.5 °F - 77.2 °F 99% 29.74 in 10.0 mi South 5.8 mph - N/A   Clear
9:55 PM 77.4 °F - 77.2 °F 99% 29.75 in 10.0 mi South 5.8 mph - N/A   Clear
10:15 PM 77.5 °F - 77.2 °F 99% 29.75 in 10.0 mi South 5.8 mph - N/A   Clear
10:55 PM 78.1 °F - 77.7 °F 99% 29.76 in 10.0 mi SSW 4.6 mph - N/A   Overcast
11:15 PM 77.9 °F - 77.4 °F 98% 29.75 in 10.0 mi South 6.9 mph - N/A   Mostly Cloudy
11:35 PM 77.5 °F - 77.4 °F 99% 29.75 in 10.0 mi South 6.9 mph - N/A   Scattered Clouds
11:55 PM 77.9 °F - 77.5 °F 99% 29.75 in 10.0 mi South 5.8 mph - N/A   Clear